Weather Roundup
Issued by NWS

Home | Current Version | Previous Version | Graphics & Text | Print | Product List | Glossary Off
Versions: 1 2 3 4 5 6 7 8 9 10 11 12 13 14 15 16 17 18 19 20 21 22 23 24 25 26 27 28 29 30 31 32 33 34 35 36 37 38 39 40 41 42 43 44 45 46 47 48 49 50

000
NZUS93 KARX 221510
HRRWXR

CURRENT HOURLY OBSERVATIONS ACROSS
MUCH OF THE UPPER MISSISSIPPI VALLEY
NATIONAL WEATHER SERVICE LA CROSSE WI
1000 AM CDT MON MAY 22 2017


...SOUTHEAST MINNESOTA...


CITY           SKY/WX    TMP DP  RH WIND       PRES   REMARKS
ROCHESTER      SUNNY     56  48  74 W12       29.90S
ROCHESTER/MAYO FAIR      55  45  67 SW9       29.89F
WINONA         SUNNY     59  45  58 W6        29.89S
AUSTIN         SUNNY     57  46  67 W6        29.88S
ALBERT LEA     SUNNY     57  46  67 NW7       29.88F
DODGE CENTER   SUNNY     54  46  76 W9        29.89F
PRESTON        SUNNY     56  46  69 W8        29.90F
OWATONNA       SUNNY     55  45  67 CALM      29.89S
FARIBAULT      SUNNY     57  46  67 S5        29.89S
$$

...ELSEWHERE IN MINNESOTA...


CITY           SKY/WX    TMP DP  RH WIND       PRES   REMARKS
MINNEAPOLIS    MOSUNNY   57  43  59 SW9       29.87S
INTNL FALLS    CLOUDY    46  43  89 NW8       29.72S
DULUTH         LGT RAIN  47  44  90 W14       29.75S FOG
RED WING       SUNNY     59  39  47 W8        29.86F
REDWOOD FALLS  SUNNY     57  43  59 N3        29.88S
MANKATO        MOSUNNY   58  42  55 NE3       29.89F
WORTHINGTON    SUNNY     58  48  69 W6        29.89F
FAIRMONT       SUNNY     58  48  69 NW12      29.88F
$$

...SOUTHWEST WISCONSIN...


CITY           SKY/WX    TMP DP  RH WIND       PRES   REMARKS
LA CROSSE      SUNNY     59  47  64 S10       29.89F
PRAIRIE DU CHI CLOUDY    54  44  69 S6        29.95F
BOSCOBEL       CLOUDY    56  46  69 SW5       29.94F
LONE ROCK      PTSUNNY   58  45  62 SW8       29.94S
PLATTEVILLE    CLOUDY    53  49  87 S7        29.98F
FORT MC COY    SUNNY     58  44  59 W5        29.90F
CAMP DOUGLAS   MOSUNNY   59  45  58 W10       29.89F
MAUSTON-NEW LI SUNNY     58  44  59 W8        29.90F
VIROQUA        FAIR      56  46  69 SW10      29.91F
WIS DELLS      MOSUNNY   57  44  60 SW9       29.92F
$$

...ELSEWHERE IN WISCONSIN...


CITY           SKY/WX    TMP DP  RH WIND       PRES   REMARKS
MILWAUKEE      SUNNY     60  42  51 SW15      29.97F
MADISON        MOSUNNY   57  45  64 SW7       29.94F
GREEN BAY      PTSUNNY   54  46  74 W17G25    29.90R
EAU CLAIRE     SUNNY     56  44  64 SW13G18   29.85S
BLACK RVR FLS  FAIR      57  40  54 W7        29.89F
MEDFORD        CLOUDY    50  43  76 W12G17    29.84S
WAUSAU         PTSUNNY   53  43  68 W17G23    29.84F
WIS RAPIDS     MOSUNNY   57  43  59 W13G18    29.90S
MARSHFIELD     SUNNY     54  44  69 SW14      29.86S
RICE LAKE      MOSUNNY   52  44  73 W15       29.84S
$$

...NORTHEAST IOWA...


CITY           SKY/WX    TMP DP  RH WIND       PRES   REMARKS
WATERLOO       CLOUDY    52  49  89 SE5       29.93F
DUBUQUE        CLOUDY    54  47  77 SW12      29.97F
DECORAH        CLOUDY    52  46  82 VRB6      29.91F
MASON CITY     MOSUNNY   55  50  83 VRB6      29.91S
CHARLES CITY   CLOUDY    50  50 100 S12       29.90F
OELWEIN        LGT RAIN  50  50 100 SW9       29.96S
$$

...ELSEWHERE IN IOWA...


CITY           SKY/WX    TMP DP  RH WIND       PRES   REMARKS
DES MOINES     PTSUNNY   64  51  62 SW9       29.92F
IOWA CITY      CLOUDY    64  48  56 SW14      29.98F
FORT DODGE     SUNNY     61  52  72 SW9       29.89F
MARSHALLTOWN   CLOUDY    61  51  70 SW15G24   29.92F
CEDAR RAPIDS   LGT RAIN  54  48  80 CALM      29.96F
$$

...NORTHERN ILLINOIS...


CITY           SKY/WX    TMP DP  RH WIND       PRES   REMARKS
CHICAGO-OHARE  SUNNY     60  45  57 W12       30.02F
CHICAGO-MIDWAY MOSUNNY   60  44  55 SW10      30.03F
MOLINE         MOSUNNY   66  47  50 SW18G25   29.99F
ROCKFORD       MOSUNNY   61  46  57 SW14      30.01F
PEORIA         SUNNY     65  48  54 SW16      30.05F
$$

NOTE: "FAIR" INDICATES FEW OR NO CLOUDS BELOW 12,000 FEET WITH NO
SIGNIFICANT WEATHER AND/OR OBSTRUCTIONS TO VISIBILITY. WIND
SPEEDS ARE IN MILES-PER-HOUR.




USA.gov is the U.S. government's official web portal to all federal, state and local government web resources and services.